| time (UTC) | temp F | wind direction | speed MPH | gust MPH | rain 1hr in | rain 24hr in | rain mn in | humidity % | barometer mb |
| 20260504001602 | 54 | 267 | 12.0 | 18.0 | 0.00 | 0.00 | 0.00 | 50 | 1011.3 |
| 20260504000042 | 54 | 279 | 9.0 | 28.0 | 0.00 | 0.00 | 0.00 | 51 | 1011.4 |
| 20260503234537 | 55 | 279 | 12.0 | 22.0 | 0.00 | 0.00 | 0.00 | 49 | 1011.7 |
| 20260503233033 | 55 | 260 | 14.0 | 26.0 | 0.00 | 0.00 | 0.00 | 48 | 1011.2 |
| 20260503231528 | 56 | 245 | 12.0 | 19.0 | 0.00 | 0.00 | 0.00 | 46 | 1011.0 |
| 20260503230024 | 56 | 298 | 7.0 | 17.0 | 0.00 | 0.00 | 0.00 | 44 | 1010.9 |
| 20260503224519 | 56 | 269 | 12.0 | 21.0 | 0.00 | 0.00 | 0.00 | 43 | 1010.8 |
| 20260503223014 | 56 | 317 | 11.0 | 22.0 | 0.00 | 0.00 | 0.00 | 44 | 1011.0 |
| 20260503221511 | 57 | 319 | 12.0 | 19.0 | 0.00 | 0.00 | 0.00 | 44 | 1010.9 |
| 20260503220006 | 57 | 279 | 14.0 | 22.0 | 0.00 | 0.00 | 0.00 | 44 | 1011.0 |
| 20260503214503 | 57 | 286 | 10.0 | 15.0 | 0.00 | 0.00 | 0.00 | 45 | 1010.8 |
| 20260503213057 | 57 | 273 | 6.0 | 10.0 | 0.00 | 0.00 | 0.00 | 47 | 1010.8 |
| 20260503211553 | 57 | 294 | 9.0 | 14.0 | 0.00 | 0.00 | 0.00 | 46 | 1010.8 |
| 20260503210048 | 57 | 314 | 7.0 | 14.0 | 0.00 | 0.00 | 0.00 | 45 | 1010.9 |
| 20260503204544 | 57 | 298 | 9.0 | 15.0 | 0.00 | 0.00 | 0.00 | 44 | 1011.1 |
| 20260503203039 | 56 | 281 | 8.0 | 16.0 | 0.00 | 0.00 | 0.00 | 45 | 1011.2 |
| 20260503201535 | 55 | 267 | 7.0 | 14.0 | 0.00 | 0.00 | 0.00 | 47 | 1011.5 |
| 20260503200030 | 55 | 281 | 10.0 | 16.0 | 0.00 | 0.00 | 0.00 | 46 | 1011.8 |
| 20260503194526 | 56 | 291 | 8.0 | 17.0 | 0.00 | 0.00 | 0.00 | 48 | 1012.1 |
| 20260503193036 | 55 | 275 | 10.0 | 16.0 | 0.00 | 0.00 | 0.00 | 49 | 1012.3 |
| 20260503191517 | 54 | 241 | 10.0 | 16.0 | 0.00 | 0.00 | 0.00 | 49 | 1012.5 |
| 20260503190012 | 55 | 294 | 12.0 | 23.0 | 0.00 | 0.00 | 0.00 | 45 | 1012.7 |
| 20260503184509 | 54 | 269 | 11.0 | 22.0 | 0.00 | 0.00 | 0.00 | 46 | 1012.9 |
| 20260503183003 | 54 | 328 | 9.0 | 23.0 | 0.00 | 0.00 | 0.00 | 47 | 1013.2 |
| 20260503181626 | 53 | 267 | 15.0 | 23.0 | 0.00 | 0.00 | 0.00 | 47 | 1013.1 |
| 20260503180059 | 52 | 296 | 13.0 | 21.0 | 0.00 | 0.00 | 0.00 | 47 | 1013.3 |
| 20260503174550 | 52 | 287 | 10.0 | 17.0 | 0.00 | 0.00 | 0.00 | 49 | 1013.4 |
| 20260503173054 | 52 | 281 | 10.0 | 17.0 | 0.00 | 0.00 | 0.00 | 52 | 1013.4 |
| 20260503171541 | 53 | 292 | 12.0 | 21.0 | 0.00 | 0.00 | 0.00 | 49 | 1013.5 |
| 20260503081502 | 37 | 279 | 2.0 | 6.0 | 0.00 | 0.00 | 0.00 | 13 | 1015.7 |
| 20260503080106 | 37 | 265 | 3.0 | 7.0 | 0.00 | 0.00 | 0.00 | 19 | 1015.6 |
| 20260503071557 | 39 | 271 | 5.0 | 9.0 | 0.00 | 0.00 | 0.00 | 32 | 1015.6 |
| 20260503070108 | 39 | 284 | 5.0 | 9.0 | 0.00 | 0.00 | 0.00 | 34 | 1015.6 |
| 20260503054541 | 39 | 275 | 3.0 | 9.0 | 0.00 | 0.00 | 0.00 | 39 | 1015.7 |
| 20260503053034 | 39 | 287 | 4.0 | 10.0 | 0.00 | 0.00 | 0.00 | 39 | 1015.9 |
| 20260503051534 | 39 | 257 | 6.0 | 11.0 | 0.00 | 0.00 | 0.00 | 40 | 1016.1 |
| 20260503050029 | 40 | 277 | 3.0 | 9.0 | 0.00 | 0.00 | 0.00 | 40 | 1016.1 |
| 20260503044535 | 40 | 279 | 4.0 | 9.0 | 0.00 | 0.00 | 0.00 | 42 | 1016.3 |
| 20260503043024 | 40 | 271 | 4.0 | 6.0 | 0.00 | 0.00 | 0.00 | 43 | 1016.4 |
| 20260503041524 | 40 | 249 | 4.0 | 10.0 | 0.00 | 0.00 | 0.00 | 44 | 1016.4 |
| 20260503040027 | 40 | 279 | 5.0 | 9.0 | 0.00 | 0.00 | 0.00 | 45 | 1016.5 |
| 20260503034520 | 40 | 263 | 3.0 | 9.0 | 0.00 | 0.00 | 0.00 | 45 | 1016.5 |
| 20260503033019 | 40 | 278 | 6.0 | 10.0 | 0.00 | 0.00 | 0.00 | 45 | 1016.5 |
| 20260503031519 | 40 | 283 | 4.0 | 8.0 | 0.00 | 0.00 | 0.00 | 45 | 1016.5 |
| 20260503030017 | 40 | 236 | 3.0 | 8.0 | 0.00 | 0.00 | 0.00 | 44 | 1016.6 |
| 20260503024516 | 40 | 278 | 3.0 | 9.0 | 0.00 | 0.00 | 0.00 | 44 | 1016.7 |
| 20260503023011 | 40 | 279 | 4.0 | 10.0 | 0.00 | 0.00 | 0.00 | 44 | 1016.7 |
| 20260503021507 | 40 | 284 | 4.0 | 9.0 | 0.00 | 0.00 | 0.00 | 44 | 1016.8 |
| 20260503020003 | 40 | 278 | 5.0 | 9.0 | 0.00 | 0.00 | 0.00 | 46 | 1016.8 |
| 20260503014558 | 40 | 284 | 4.0 | 8.0 | 0.00 | 0.00 | 0.00 | 46 | 1016.8 |
| 20260503013058 | 41 | 281 | 2.0 | 10.0 | 0.00 | 0.00 | 0.00 | 46 | 1016.8 |
| 20260503011604 | 41 | 276 | 4.0 | 10.0 | 0.00 | 0.00 | 0.00 | 46 | 1016.8 |
| 20260503010114 | 41 | 250 | 5.0 | 12.0 | 0.00 | 0.00 | 0.00 | 46 | 1016.7 |
| 20260503004540 | 41 | 306 | 4.0 | 10.0 | 0.00 | 0.01 | 0.00 | 47 | 1016.6 |
| 20260503003034 | 41 | 280 | 4.0 | 9.0 | 0.00 | 0.01 | 0.00 | 49 | 1016.5 |